TimeEST,TemperatureF,Dew PointF,Humidity,Sea Level PressureIn,VisibilityMPH,Wind Direction,Wind SpeedMPH,Gust SpeedMPH,PrecipitationIn,Events,Conditions,WindDirDegrees,DateUTC
12:53 AM,55.9,51.1,84,30.24,10.0,NE,6.9,-,N/A,,Clear,50,2011-12-19 05:53:00
1:53 AM,55.9,51.1,84,30.22,10.0,ENE,6.9,-,N/A,,Clear,70,2011-12-19 06:53:00
2:53 AM,55.0,51.1,86,30.20,10.0,ENE,5.8,-,N/A,,Clear,70,2011-12-19 07:53:00
3:53 AM,55.0,51.1,86,30.19,10.0,ENE,5.8,-,N/A,,Clear,60,2011-12-19 08:53:00
4:53 AM,55.0,51.1,86,30.18,10.0,ENE,5.8,-,N/A,,Clear,70,2011-12-19 09:53:00
5:53 AM,55.0,52.0,89,30.19,10.0,ENE,6.9,-,N/A,,Clear,60,2011-12-19 10:53:00
6:53 AM,55.0,52.0,89,30.21,10.0,East,4.6,-,N/A,,Clear,80,2011-12-19 11:53:00
7:53 AM,57.0,53.1,87,30.23,10.0,East,4.6,-,N/A,,Clear,90,2011-12-19 12:53:00
8:53 AM,64.0,55.0,73,30.24,10.0,East,9.2,-,N/A,,Clear,100,2011-12-19 13:53:00
9:53 AM,70.0,55.0,59,30.25,10.0,ESE,10.4,-,N/A,,Clear,110,2011-12-19 14:53:00
10:53 AM,73.9,54.0,50,30.24,10.0,ESE,16.1,26.5,N/A,,Clear,120,2011-12-19 15:53:00
11:53 AM,75.9,55.0,48,30.23,10.0,ESE,15.0,23.0,N/A,,Clear,120,2011-12-19 16:53:00
1:53 PM,78.1,54.0,43,30.17,10.0,ESE,12.7,19.6,N/A,,Clear,110,2011-12-19 18:53:00
2:53 PM,79.0,54.0,42,30.16,10.0,SE,12.7,18.4,N/A,,Clear,130,2011-12-19 19:53:00
3:53 PM,78.1,54.0,43,30.16,10.0,SE,10.4,-,N/A,,Clear,130,2011-12-19 20:53:00
4:53 PM,75.0,54.0,48,30.17,10.0,East,12.7,-,N/A,,Clear,90,2011-12-19 21:53:00
5:53 PM,71.1,53.1,53,30.18,10.0,ESE,8.1,-,N/A,,Clear,110,2011-12-19 22:53:00
6:53 PM,69.1,54.0,58,30.19,10.0,East,6.9,-,N/A,,Clear,100,2011-12-19 23:53:00
7:53 PM,66.0,55.0,68,30.21,10.0,ESE,6.9,-,N/A,,Clear,110,2011-12-20 00:53:00
8:53 PM,64.0,54.0,70,30.22,10.0,East,6.9,-,N/A,,Clear,100,2011-12-20 01:53:00
9:53 PM,63.0,55.0,75,30.22,10.0,East,6.9,-,N/A,,Clear,100,2011-12-20 02:53:00
11:53 PM,61.0,54.0,78,30.20,10.0,ESE,5.8,-,N/A,,Clear,110,2011-12-20 04:53:00